sat.trackr.live / text

‹ back to catalog

STARLINK-11661 [DTC]

NORAD 63676 · 2025-085N

PAYLOAD ACTIVE UNKNOWN

§ Identity

Operator
Country
US
Launch date
2025-04-28
Launch site
AFETR
Launch vehicle
Mass (kg)
RCS (m²)

Purposes: comms

External: N2YO · Heavens-Above · Gunter

§ Orbital elements

Epoch: 2026-05-24T18:58:09.677856Z

Period
91.67 min
Inclination
42.9992°
Eccentricity
0.0000840
Mean motion
15.70881532 rev/d
Perigee alt
355.8 km
Apogee alt
356.9 km
Semi-major
6,734.5 km
B*
1.3051e-3
RAAN
179.4253°
Arg perigee
300.2529°
Mean anomaly
59.8256°
Rev number
6,286

§ Raw data

STARLINK-11661 [DTC]1 63676U 25085N   26144.79038979  .00170793  00000+0  13051-2 0  99952 63676  42.9992 179.4253 0000840 300.2529  59.8256 15.70881532 62866

JSON: /api/v1/satellites/63676 · /tle

For live sub-satellite position, see the globe view (requires WebGL).

§ Visibility from observer

Set your observer location to see the next 7 days of passes ≥ 10°. The values pass through the URL so the page stays shareable.

No JS? Fill the form by hand. The geolocation button needs JavaScript.